Location: Kershaw
(34.5481°N, 80.5823°W)
Time: 14:08:05
(UTC+00:00)

Courier 1B - All Passes

Search period start: 28 September 2022 00:00
Search period end: 08 October 2022 00:00
Orbit: 962 x 1209 km, 28.3° (Epoch: 28 September)

Date Brightness Start Highest point End Pass type
(mag) Time Alt. Az. Time Alt. Az. Time Alt. Az.
28 Sep - 01:39:02 10° W 01:44:53 35° SSW 01:50:41 10° SE visible
28 Sep - 03:34:36 10° WSW 03:38:09 15° SSW 03:41:43 10° S visible
28 Sep - 19:06:13 10° S 19:10:31 17° SSE 19:14:40 10° ESE daylight
28 Sep - 20:57:38 10° SW 21:03:59 36° SSE 21:10:01 10° E daylight
28 Sep - 22:51:05 10° WSW 22:57:39 50° S 23:03:55 10° ESE daylight
29 Sep - 00:45:08 10° W 00:51:15 41° SSW 00:57:15 10° SE visible
29 Sep - 02:40:03 10° WSW 02:44:36 20° SSW 02:49:08 10° SSE visible
29 Sep - 18:13:59 10° S 18:16:50 12° SSE 18:19:38 10° SE daylight
29 Sep - 20:04:04 10° SW 20:10:18 31° SSE 20:16:11 10° ESE daylight
29 Sep - 21:57:15 10° WSW 22:03:56 49° S 22:10:16 10° ESE daylight
29 Sep - 23:51:15 10° W 23:57:37 46° S 00:03:46 10° ESE visible
30 Sep - 01:45:49 10° WSW 01:51:02 25° SSW 01:56:12 10° SSE visible
30 Sep - 19:10:40 10° SSW 19:16:35 26° SSE 19:22:13 10° ESE daylight
30 Sep - 21:03:26 10° WSW 21:10:12 46° S 21:16:36 10° E daylight
30 Sep - 22:57:20 10° WSW 23:03:56 49° S 23:10:14 10° ESE daylight
01 Oct - 00:51:44 10° WSW 00:57:28 31° SSW 01:03:02 10° SE visible
01 Oct - 02:48:36 10° SW 02:50:38 12° SSW 02:52:40 10° S visible
01 Oct - 18:17:27 10° SSW 18:22:52 21° SSE 18:28:04 10° ESE daylight
01 Oct - 20:09:40 10° SW 20:16:27 42° SSE 20:22:52 10° E daylight
01 Oct - 22:03:25 10° WSW 22:10:13 51° S 22:16:39 10° ESE daylight
01 Oct - 23:57:42 10° W 00:03:51 37° SSW 00:09:46 10° SE visible
02 Oct - 01:53:16 10° WSW 01:57:06 16° SSW 02:00:53 10° S visible
02 Oct - 17:24:35 10° S 17:29:09 17° SSE 17:33:35 10° ESE daylight
02 Oct - 19:15:58 10° SW 19:22:42 37° SSE 19:29:04 10° E daylight
02 Oct - 21:09:30 10° WSW 21:16:28 52° S 21:23:02 10° ESE daylight
02 Oct - 23:03:42 10° W 23:10:12 43° SSW 23:16:22 10° ESE daylight
03 Oct - 00:58:42 10° WSW 01:03:33 21° SSW 01:08:18 10° SSE visible
03 Oct - 16:32:24 10° S 16:35:25 13° SSE 16:38:24 10° SE daylight
03 Oct - 18:22:24 10° SW 18:28:56 32° SSE 18:35:11 10° E daylight
03 Oct - 20:15:36 10° WSW 20:22:42 50° S 20:29:22 10° E daylight
03 Oct - 22:09:42 10° W 22:16:29 48° S 22:22:54 10° ESE daylight
04 Oct - 00:04:23 10° WSW 00:09:59 27° SSW 00:15:22 10° SSE visible
04 Oct - 17:28:59 10° SSW 17:35:10 27° SSE 17:41:08 10° ESE daylight
04 Oct - 19:21:44 10° WSW 19:28:53 47° S 19:35:39 10° E daylight
04 Oct - 21:15:43 10° WSW 21:22:44 51° S 21:29:21 10° ESE daylight
04 Oct - 23:10:12 10° W 23:16:22 33° SSW 23:22:14 10° SE daylight
05 Oct - 01:06:46 10° SW 01:09:33 13° SSW 01:12:19 10° S visible
05 Oct - 16:35:49 10° SSW 16:41:24 22° SSE 16:46:51 10° ESE daylight
05 Oct - 18:27:56 10° SW 18:35:04 42° SSE 18:41:51 10° E daylight
05 Oct - 20:21:44 10° WSW 20:28:57 53° S 20:35:44 10° ESE daylight
05 Oct - 22:16:06 10° W 22:22:42 40° SSW 22:28:55 10° SE daylight
06 Oct - 00:11:38 10° WSW 00:16:01 18° SSW 00:20:16 10° SSE visible
06 Oct - 15:43:02 10° S 15:47:38 17° SSE 15:52:12 10° ESE daylight
06 Oct - 17:34:14 10° SW 17:41:15 37° SSE 17:47:58 10° E daylight
06 Oct - 19:27:45 10° WSW 19:35:07 53° S 19:42:04 10° ESE daylight
06 Oct - 21:22:02 10° W 21:28:58 46° SSW 21:35:31 10° ESE daylight
06 Oct - 23:17:03 10° WSW 23:22:26 24° SSW 23:27:36 10° SSE visible
07 Oct - 14:51:04 10° S 14:53:55 12° SSE 14:56:44 10° SE daylight
07 Oct - 16:40:42 10° SW 16:47:25 32° SSE 16:53:57 10° E daylight
07 Oct - 18:33:50 10° WSW 18:41:16 51° S 18:48:19 10° E daylight
07 Oct - 20:27:58 10° W 20:35:12 50° S 20:41:59 10° ESE daylight
07 Oct - 22:22:42 10° W 22:28:48 30° SSW 22:34:37 10° SE daylight
